Theta_e
288 287 287 287 287 287 287 287 286 286 286 286 286 286 286 285 285 285 285 286 286 287 287 287 287 287 287 287 288 288 288 288 288 288 288 288 288 289 289 289 289 289 289 289 289 290 290 290 290 291 294 297 299 299 297 296 296 297 297 297 297 296 296 300 305 309 310 310 309 308 307 305 304 305
287 287 287 287 286 286 286 286 286 286 286 286 286 286 286 286 285 285 284 285 286 286 287 287 287 287 287 287 288 288 288 288 288 288 288 288 288 288 288 289 289 289 289 289 289 289 289 290 290 290 290 292 295 298 299 298 296 296 297 297 297 297 295 295 297 303 309 310 309 308 307 306 304 302
286 286 286 286 286 286 286 286 286 286 286 286 286 286 286 286 285 285 284 284 286 286 286 287 287 287 287 287 287 288 287 287 287 287 287 287 288 288 288 288 288 289 289 289 289 289 289 289 289 290 290 290 291 294 297 299 298 296 296 296 297 297 296 295 294 298 307 310 309 308 307 307 306 303
286 286 286 286 286 286 286 286 286 286 286 286 286 286 285 285 285 285 284 283 285 286 286 286 287 286 287 287 287 287 287 287 287 287 287 287 287 287 287 288 288 288 288 289 289 289 289 289 289 289 289 290 290 290 292 296 299 298 297 296 296 297 296 296 294 296 303 308 309 308 307 307 306 305
285 285 285 285 285 285 285 285 285 285 285 285 285 285 285 285 285 284 284 283 284 286 286 286 286 286 285 286 287 287 287 287 287 287 287 287 287 287 287 287 288 288 288 288 288 289 289 289 289 289 289 289 289 290 290 291 295 298 299 297 296 296 296 296 295 294 298 305 308 308 307 307 306 305
285 285 285 285 285 285 285 285 285 285 285 285 285 285 285 285 285 284 283 283 283 284 285 285 286 285 284 284 285 285 285 286 287 286 287 286 286 286 287 287 287 287 288 288 288 288 288 288 289 289 289 289 289 289 289 290 291 294 298 299 297 296 296 296 296 294 293 298 305 308 307 307 307 305
284 284 284 284 284 284 285 285 285 284 284 284 284 284 284 284 284 284 283 282 282 283 284 285 285 285 284 284 284 284 283 285 286 286 286 286 286 286 286 286 286 287 287 287 288 288 288 288 288 288 289 289 289 289 289 289 289 290 293 297 298 297 296 295 296 295 293 293 297 303 306 307 307 306
284 284 284 284 284 284 284 284 284 284 284 284 284 284 284 283 283 283 282 281 281 281 282 284 285 285 284 283 282 282 282 283 284 285 285 286 286 286 285 285 285 285 286 286 287 287 288 288 288 288 288 289 289 289 289 289 289 289 290 293 297 298 297 296 295 296 295 293 293 296 301 305 306 306
284 284 284 284 284 284 284 284 284 284 284 284 283 283 283 282 282 282 281 280 279 279 280 282 283 283 283 281 281 281 280 281 282 283 283 284 284 285 285 284 284 284 285 285 286 287 287 288 288 288 288 288 288 289 289 289 289 289 289 290 293 296 298 297 296 295 295 295 293 292 295 299 302 302
284 284 284 284 284 284 284 284 283 283 283 283 283 282 282 281 281 280 280 278 278 278 278 279 280 281 280 279 279 279 280 280 280 281 281 282 283 284 284 284 284 284 284 284 284 285 286 287 287 287 288 288 288 288 288 288 288 289 289 289 289 292 295 298 297 296 295 295 295 293 292 293 294 295
284 284 284 284 284 284 283 283 283 282 282 282 282 281 281 280 279 279 278 277 276 276 277 277 278 278 278 278 278 279 279 279 279 280 281 281 282 282 282 283 283 283 283 283 284 284 284 285 286 287 288 288 288 288 288 288 288 288 288 289 289 289 291 295 297 297 296 295 295 295 294 293 292 291
284 284 284 283 283 283 283 282 282 282 281 281 281 280 279 279 278 278 277 276 275 275 275 276 276 276 277 277 277 278 278 278 278 279 279 279 279 280 280 281 282 283 283 283 284 284 284 285 285 286 287 287 288 287 287 288 288 288 287 288 288 288 289 291 294 296 297 296 295 295 295 295 294 292
283 283 283 283 283 282 282 282 281 281 280 279 279 279 278 278 278 277 276 275 274 274 274 274 275 275 275 276 276 277 277 277 278 278 278 278 279 279 280 280 280 281 282 282 283 284 284 285 285 285 286 286 287 287 287 287 287 288 287 287 287 288 288 288 290 293 296 296 296 295 295 295 295 294
283 283 283 283 282 282 282 281 281 280 279 279 278 278 277 277 276 276 275 273 273 273 273 274 274 275 275 275 276 276 276 276 277 277 277 277 278 278 278 278 278 279 280 280 281 282 283 283 283 284 285 285 286 286 286 286 286 287 287 287 287 287 287 287 288 289 293 295 296 296 295 295 295 295
283 283 282 282 282 282 281 281 280 280 279 278 278 277 277 276 275 274 273 273 272 273 273 273 273 274 274 274 274 275 275 275 276 276 276 276 276 277 277 277 277 278 278 279 279 280 281 281 281 281 282 283 284 285 285 285 286 286 286 286 286 286 287 287 287 288 290 293 295 296 295 295 295 295
282 282 282 282 281 281 281 280 279 279 279 278 278 277 276 276 275 275 274 273 273 273 273 273 273 273 273 274 274 274 275 275 275 275 276 276 276 277 277 277 277 277 278 278 278 279 280 280 279 280 281 281 282 283 283 283 284 285 286 286 286 286 286 286 287 287 288 291 294 296 295 295 295 295
282 282 281 281 281 280 280 279 279 278 278 278 277 277 276 276 275 275 274 274 274 273 273 273 273 274 274 274 274 274 275 275 275 275 276 276 276 277 277 277 277 277 277 277 277 278 279 279 279 280 281 281 282 282 282 282 283 283 285 286 286 286 286 286 286 286 287 288 291 294 295 295 295 295
282 281 281 280 280 279 279 279 279 278 278 278 277 277 276 275 274 274 274 274 275 275 274 274 274 274 274 274 275 275 275 275 276 276 276 276 276 277 277 277 277 277 277 277 277 278 278 279 279 280 280 281 282 282 282 283 283 283 284 285 286 286 286 286 286 286 286 286 288 291 294 295 295 295
281 281 280 279 279 279 279 278 278 278 278 277 276 275 275 274 274 274 274 275 276 276 275 275 275 275 275 275 276 276 276 276 277 277 277 277 277 277 277 277 277 277 277 277 277 277 278 278 278 279 279 280 281 282 282 283 283 284 284 284 284 285 285 286 286 286 286 285 286 288 292 294 295 294
281 280 279 279 279 278 278 278 278 277 276 275 274 274 274 274 274 274 275 276 276 276 276 276 276 277 277 277 277 277 277 277 277 277 277 277 277 277 277 277 277 277 277 277 277 277 277 278 278 278 278 279 279 280 281 282 283 284 284 284 284 284 285 286 286 285 285 285 285 286 289 292 294 294
280 280 279 278 278 278 278 278 278 276 274 274 274 274 274 274 275 275 276 276 276 276 276 276 277 277 277 277 277 277 277 277 277 277 277 277 277 277 277 277 277 277 277 277 277 277 277 277 277 278 278 278 278 278 279 280 282 283 284 284 284 284 285 285 285 285 285 285 285 285 286 289 292 293
279 279 279 278 278 278 278 277 276 275 274 275 275 275 275 275 276 276 276 276 276 276 277 277 277 277 277 277 277 277 277 277 277 277 277 276 276 277 277 276 276 276 276 276 277 277 277 277 277 277 277 278 278 278 279 280 281 283 284 284 284 285 285 285 285 285 285 285 285 285 285 286 289 291
279 279 278 278 278 277 277 276 275 275 275 275 275 276 276 276 276 276 276 277 277 277 277 277 277 277 276 276 276 276 276 276 276 276 276 276 276 276 276 276 276 276 276 277 277 277 277 277 277 277 277 277 278 278 278 279 279 280 282 284 285 285 285 285 285 285 285 285 285 285 285 285 287 289
279 278 278 278 277 276 275 275 275 275 276 276 276 276 276 276 276 277 277 277 277 277 277 276 276 276 276 276 276 276 276 276 276 276 276 276 276 276 276 276 276 276 276 276 276 276 276 276 277 277 276 277 277 277 278 278 278 278 280 281 283 284 285 285 285 285 285 285 285 285 285 284 285 288
278 278 277 276 276 275 275 274 275 276 276 276 276 276 276 276 276 276 276 276 276 276 276 275 275 275 275 275 275 275 275 275 276 276 275 275 276 276 276 276 276 276 276 276 276 276 276 276 276 276 276 276 276 277 277 277 278 278 279 279 280 282 283 285 285 285 285 285 285 285 285 285 285 287
277 276 275 274 274 274 274 274 275 275 275 275 275 276 276 275 275 275 275 275 275 275 274 274 274 274 274 274 274 274 274 275 275 275 275 276 276 276 275 275 275 275 275 275 275 275 276 276 276 276 276 276 276 276 277 277 277 278 278 278 279 280 282 284 284 285 285 285 285 285 285 285 285 286
275 274 273 273 273 274 274 275 275 275 275 275 275 275 275 275 274 273 274 274 274 274 274 274 274 274 274 274 275 275 275 275 275 275 276 276 276 276 276 276 275 275 275 275 274 274 275 275 275 275 275 275 276 276 276 276 276 277 277 278 278 279 280 282 283 284 285 285 285 285 285 286 286 287
274 274 274 273 274 274 274 275 275 275 275 275 275 275 275 275 274 273 273 273 273 273 274 274 274 274 275 274 274 274 275 275 275 275 276 276 276 276 276 276 276 276 275 274 274 274 274 274 274 274 274 275 275 275 275 276 276 276 277 277 278 278 279 281 282 284 285 285 286 286 286 286 287 288
274 274 274 274 274 274 274 275 275 275 275 275 275 275 275 274 274 273 272 272 272 272 272 272 273 273 274 273 273 273 273 274 275 275 276 276 275 275 275 276 276 276 276 275 275 275 274 274 274 274 274 274 274 275 275 275 275 276 276 277 277 277 278 280 281 283 284 285 285 285 286 287 287 287
275 275 274 274 274 274 274 274 274 274 274 274 274 274 274 273 273 272 272 271 271 271 271 272 272 272 273 273 273 273 273 273 274 275 275 274 274 274 275 275 275 275 276 276 276 275 275 275 275 274 274 275 274 274 275 275 275 275 276 276 277 277 278 279 281 282 283 284 285 285 285 286 286 286
275 274 274 274 274 274 274 274 274 274 274 274 274 274 274 273 272 271 271 271 271 271 271 271 272 272 272 272 273 273 273 273 274 274 274 273 273 274 274 274 275 275 276 276 277 276 276 275 275 275 275 275 275 275 275 275 275 275 275 276 276 277 277 278 280 281 282 283 284 285 285 286 286 286
274 274 273 274 274 274 273 273 274 274 274 274 274 274 273 272 272 271 271 271 270 270 270 270 271 271 272 272 272 273 273 273 274 273 272 272 273 274 274 275 275 275 275 276 277 277 277 276 276 276 276 276 276 276 276 275 275 276 276 276 277 277 277 278 279 280 282 283 284 285 285 285 286 286
273 273 273 274 274 273 273 274 273 274 274 274 274 273 273 272 272 271 271 270 270 270 270 270 270 270 271 271 272 271 272 272 272 272 271 272 273 273 274 275 275 275 275 276 276 277 277 277 277 277 277 277 277 277 276 276 276 276 276 276 277 277 277 278 279 280 281 282 283 284 285 285 285 286
273 273 273 273 273 273 273 273 273 273 273 273 273 273 273 272 271 271 271 270 270 270 270 270 270 270 270 270 270 269 269 270 270 271 271 272 272 273 274 274 275 275 276 275 275 276 277 277 277 277 278 278 278 278 278 277 277 277 277 277 277 278 278 278 279 280 281 282 283 284 284 285 285 285
273 273 273 273 273 273 273 273 273 273 273 273 273 273 272 272 272 271 271 271 270 270 270 270 270 269 269 269 268 268 268 268 269 270 271 271 272 272 273 274 275 275 276 276 276 276 276 277 277 277 278 278 278 279 279 279 278 278 277 277 278 278 279 279 280 280 280 282 283 284 284 285 285 285
272 272 272 272 272 272 273 272 272 272 272 272 272 272 272 272 272 272 272 271 271 271 271 270 269 269 268 268 268 268 268 269 269 270 271 271 272 272 272 273 274 275 275 276 276 276 277 277 277 278 278 279 279 279 280 280 280 279 279 278 278 279 279 280 280 280 281 282 282 283 284 285 285 285
272 272 272 272 272 272 272 272 272 272 272 272 272 271 271 271 271 272 272 272 272 272 270 269 268 268 268 268 268 269 269 269 269 270 270 271 271 271 271 272 273 274 275 276 276 277 277 278 278 279 279 280 280 280 280 281 280 280 280 279 279 279 280 280 280 281 282 282 283 283 284 284 285 285
272 272 272 272 272 272 272 271 271 271 271 271 271 271 271 271 271 271 272 272 272 271 269 268 268 268 268 268 268 268 269 269 269 270 270 270 270 270 271 271 272 273 274 275 276 277 277 278 279 279 279 280 281 281 281 281 281 281 281 281 281 281 281 281 281 281 282 283 283 283 284 284 285 285
271 271 271 271 271 271 271 271 271 271 271 270 270 270 270 270 270 270 271 272 271 270 269 269 268 268 268 268 268 268 268 269 269 270 270 270 270 270 270 271 271 272 273 274 275 276 277 278 279 279 280 280 281 281 281 281 281 282 282 282 282 282 282 282 282 282 283 283 283 284 284 284 285 285
271 271 271 271 271 271 271 271 271 270 270 270 270 270 270 270 270 270 270 271 271 271 270 269 268 267 267 268 268 268 269 269 269 270 270 270 270 270 270 270 271 272 273 274 275 276 276 277 278 279 279 280 280 280 281 281 281 282 282 282 283 283 283 283 283 283 283 283 284 284 284 284 285 285
271 271 271 271 271 271 271 271 271 270 270 270 270 270 270 270 270 270 270 270 270 270 270 269 269 268 268 268 268 268 269 269 269 270 270 270 270 270 270 270 271 272 272 273 274 275 276 277 277 278 278 279 280 280 281 281 281 282 282 282 283 283 283 283 283 283 283 283 284 284 284 284 284 284
271 271 271 270 270 270 270 270 270 270 270 270 270 270 270 270 270 270 270 270 270 270 270 270 269 269 268 268 269 269 269 269 269 269 270 269 270 270 271 271 271 272 272 273 274 275 276 277 277 278 278 279 280 280 280 281 282 282 283 283 283 283 283 283 283 283 283 283 283 283 284 284 284 284
270 270 270 270 270 270 270 270 270 270 270 270 270 270 270 270 270 270 270 270 270 270 270 270 270 269 269 268 269 269 269 269 269 269 270 270 270 270 271 271 272 272 272 273 274 275 276 276 277 278 279 280 280 280 280 281 282 282 282 282 282 282 282 282 282 282 282 283 283 283 283 284 284 284
270 270 270 270 270 270 270 270 270 270 270 270 270 270 270 270 270 270 270 269 269 269 269 270 270 270 269 269 269 269 269 270 270 270 270 270 270 270 271 271 272 272 273 273 274 275 276 276 277 278 278 279 280 280 280 281 281 282 282 281 281 280 280 281 281 281 281 282 283 283 283 283 283 283
270 270 270 270 270 270 270 270 270 270 270 270 270 270 270 270 270 269 269 269 269 269 269 269 270 270 270 269 269 269 270 270 270 270 270 270 270 271 271 271 272 272 273 273 274 274 276 276 277 277 278 278 279 279 279 280 281 281 281 281 281 280 280 280 280 280 281 281 282 282 282 282 282 282
Wind_Speed
26 26 26 26 26 27 27 27 28 29 29 29 30 31 32 31 33 35 39 44 47 46 46 48 49 49 48 49 50 49 49 49 48 49 49 48 48 46 44 42 40 39 38 37 36 35 34 32 31 30 29 31 34 37 37 37 36 36 37 39 42 44 45 45 43 39 37 37 37 36 35 32 28 28
25 26 26 27 28 28 29 30 30 30 31 32 32 33 34 34 35 34 35 43 49 47 47 50 50 51 52 52 53 53 52 52 51 50 50 50 49 48 47 45 43 41 40 40 39 38 38 37 35 33 31 30 31 34 37 38 38 37 37 37 40 43 45 46 47 44 41 39 40 40 40 38 34 31
24 25 26 27 28 29 30 31 31 32 32 34 35 35 37 38 39 38 35 41 50 50 49 52 52 52 53 54 55 56 56 55 54 53 52 52 51 50 49 48 47 45 43 42 41 41 41 40 38 36 35 33 32 32 34 37 39 39 38 37 38 41 44 45 46 47 44 40 40 41 41 41 40 37
25 26 27 28 29 30 31 31 32 33 34 35 36 37 39 40 40 41 38 41 51 55 52 54 56 54 54 55 55 56 57 57 56 56 55 54 54 53 52 50 49 48 47 45 43 43 43 42 41 40 38 36 35 33 32 34 37 40 41 39 38 39 42 45 45 47 45 40 38 40 41 41 42 42
27 28 29 30 30 31 32 32 33 34 35 36 38 38 39 40 40 41 40 41 49 56 55 55 57 56 55 56 56 54 56 57 57 57 58 57 56 56 55 53 52 50 49 48 46 44 44 43 43 42 41 39 37 36 34 33 34 37 40 41 40 38 39 43 45 46 46 43 40 41 42 42 42 43
30 30 31 31 32 32 33 34 34 36 36 37 38 39 39 41 41 41 41 42 46 52 55 55 57 57 54 54 56 54 54 56 56 56 58 58 57 57 56 56 55 53 50 49 48 47 46 45 44 44 43 42 40 38 37 36 34 35 37 41 42 41 39 40 44 47 47 47 45 44 44 45 45 45
31 32 32 32 33 34 34 35 36 37 38 39 40 40 41 41 42 42 41 41 43 47 53 54 55 56 54 52 53 52 50 52 54 55 55 56 56 56 55 55 55 54 52 50 49 48 47 46 45 44 44 44 43 41 40 38 37 36 35 37 41 43 41 40 41 45 48 48 48 47 47 48 49 48
32 33 33 33 34 35 35 36 37 38 39 40 40 41 41 41 42 41 40 39 39 41 47 52 53 54 53 51 50 49 46 47 50 51 51 51 52 53 53 52 52 52 51 50 50 49 48 46 45 45 45 44 44 44 42 40 39 38 36 35 38 41 43 42 40 42 45 48 49 48 48 48 49 50
33 33 34 34 35 36 37 37 38 39 40 40 41 42 42 41 41 41 39 37 36 36 41 48 51 51 51 48 46 44 40 40 44 46 45 47 49 50 50 50 48 46 46 46 44 44 44 45 45 44 44 45 45 45 44 43 41 40 39 36 35 38 41 43 43 41 42 45 47 49 50 49 49 49
33 33 34 35 35 36 37 38 39 40 40 41 41 41 41 40 39 40 39 36 34 35 37 41 45 47 46 41 40 38 34 33 37 39 39 39 39 39 41 44 44 43 42 42 40 39 40 43 45 45 44 44 44 44 44 44 43 41 41 39 37 36 37 41 43 43 42 42 44 46 49 51 51 50
33 33 34 35 36 36 37 38 38 39 39 40 40 39 39 39 37 37 37 34 33 33 33 35 36 38 39 35 33 33 30 30 30 28 28 30 32 33 36 41 44 44 42 39 36 35 35 37 40 42 43 44 44 45 44 43 44 43 42 41 39 37 36 38 41 43 44 43 42 43 45 47 50 50
33 33 34 35 36 37 37 37 37 37 37 37 38 37 36 36 36 35 35 33 32 31 32 33 31 31 34 32 29 28 26 27 26 22 24 29 33 34 33 34 36 36 36 33 29 28 27 28 30 33 37 40 41 43 43 43 43 43 43 42 41 39 37 36 37 40 43 45 44 43 43 43 46 48
33 34 35 36 36 37 36 36 35 35 34 34 35 35 34 33 33 33 33 32 31 30 31 31 28 27 28 27 26 24 23 25 26 24 25 28 29 28 30 36 36 31 30 30 28 26 23 22 23 24 28 34 37 38 41 42 43 43 42 42 42 41 40 38 37 38 40 43 45 45 44 42 43 45
33 34 35 36 37 37 36 35 34 33 32 31 31 31 30 30 30 30 30 29 27 26 27 26 24 25 26 24 24 25 25 26 27 26 26 28 29 27 32 41 40 31 26 28 31 34 31 28 29 28 26 28 30 33 35 37 39 40 40 40 41 42 42 40 39 38 38 40 43 45 46 44 43 43
34 35 36 36 37 37 35 35 33 32 31 30 29 29 27 26 25 25 26 26 24 24 26 28 26 25 28 27 25 26 26 25 25 25 25 27 28 27 28 33 32 24 21 26 33 41 43 38 39 40 36 32 30 32 35 37 38 38 37 38 39 40 41 41 40 39 39 39 41 43 45 45 45 44
35 36 37 37 37 36 35 34 33 31 31 30 29 28 26 25 24 22 22 23 24 25 27 30 29 26 28 29 25 22 22 21 21 22 23 23 24 23 23 27 29 24 23 29 35 43 45 38 37 43 41 36 32 33 38 41 42 41 39 38 38 38 40 41 40 39 38 38 39 41 43 45 45 45
34 35 36 36 37 36 35 33 32 31 31 31 30 30 28 26 24 22 23 23 24 26 28 31 32 29 28 27 23 22 22 24 25 26 27 26 26 27 26 29 33 30 28 33 38 45 46 34 30 38 37 30 29 30 33 36 38 39 39 39 39 39 39 40 40 39 38 37 37 39 41 43 45 45
34 35 35 36 36 35 33 32 31 31 31 31 31 30 29 28 28 28 27 25 24 26 28 31 32 31 29 27 26 27 28 30 32 34 36 36 36 38 37 36 37 33 29 30 34 45 46 31 26 37 34 26 26 27 28 30 31 33 35 35 37 38 39 39 40 40 39 37 36 37 39 42 44 45
35 35 35 35 34 33 33 32 31 30 29 29 30 31 32 34 34 33 31 27 27 29 31 33 34 34 34 33 33 33 33 35 37 38 41 41 40 41 41 38 35 31 27 25 28 40 44 30 26 38 35 27 27 28 27 29 29 29 32 32 33 35 37 39 39 39 40 39 37 36 37 40 42 44
35 35 34 34 33 33 33 32 31 29 27 28 31 35 37 38 37 35 33 31 32 34 35 36 36 36 36 36 36 36 36 37 38 38 40 39 35 36 37 35 32 28 26 24 24 34 39 29 28 38 37 30 33 35 32 30 28 29 30 31 32 32 33 35 37 38 39 40 39 37 36 37 40 42
34 34 34 33 33 33 32 31 30 28 26 28 32 35 37 38 38 37 37 38 39 39 37 36 36 36 36 36 36 36 36 36 35 36 39 38 34 33 33 33 32 29 27 25 22 28 33 27 27 36 36 31 35 40 36 28 25 27 30 32 33 31 29 30 32 35 38 39 39 38 36 36 37 39
34 33 33 32 32 33 32 30 29 26 26 29 31 33 36 38 41 42 43 44 44 42 40 38 36 36 36 35 35 35 34 34 33 34 38 39 36 34 33 34 34 33 31 26 22 26 29 24 24 31 35 35 38 42 38 28 22 23 24 27 29 30 29 28 27 29 34 37 38 38 37 35 35 36
32 32 33 32 32 33 32 29 26 25 26 29 32 36 39 42 45 45 44 44 44 42 41 38 37 37 37 37 35 34 34 34 35 38 40 37 33 32 34 34 33 34 33 26 20 24 27 24 24 26 30 36 39 37 33 29 29 30 26 23 25 26 27 27 26 26 28 31 35 37 37 36 34 34
32 32 33 33 32 31 30 28 27 27 29 31 34 37 39 41 42 41 41 41 41 40 38 35 33 33 35 36 34 32 34 37 39 40 38 33 30 31 34 34 33 36 37 29 23 26 29 27 27 26 26 32 37 36 32 32 35 34 28 25 26 27 26 27 27 26 25 27 30 33 35 36 34 33
32 32 32 32 32 31 29 28 29 30 31 32 34 35 36 37 38 38 39 39 37 35 33 32 32 31 30 31 32 33 37 40 40 38 35 32 31 31 33 34 35 38 41 35 27 28 32 31 30 30 30 32 36 38 38 35 31 26 25 26 28 28 27 27 28 27 27 28 28 29 31 34 34 35
30 30 30 31 31 29 29 30 31 32 32 33 34 34 35 35 35 35 36 36 36 37 37 38 39 37 33 33 35 36 38 39 39 37 35 34 35 35 34 34 35 38 43 39 29 27 33 34 32 32 34 35 36 37 39 39 32 26 26 29 29 28 28 28 29 30 30 31 31 29 29 30 32 34
28 27 28 29 30 29 30 32 32 32 33 33 33 33 33 32 32 32 33 35 36 38 38 38 37 36 34 33 33 33 33 33 34 35 36 36 38 38 37 36 36 38 40 38 31 28 32 35 33 32 34 36 38 39 39 40 36 30 27 28 27 26 27 28 30 31 30 29 30 29 28 29 30 31
25 27 28 29 29 30 30 31 32 32 32 32 32 32 31 31 30 30 31 31 31 32 32 33 33 33 32 32 31 31 31 32 33 34 36 37 37 37 37 37 36 36 36 35 33 31 33 35 35 35 35 35 38 41 40 39 38 34 31 30 29 28 27 28 30 31 29 28 28 28 27 28 28 28
26 27 28 28 29 29 30 31 32 33 33 32 31 31 29 29 28 28 27 27 27 28 29 29 30 31 31 31 31 31 32 32 33 33 34 35 35 34 35 36 36 36 34 33 33 32 32 34 36 36 35 35 36 40 40 39 39 37 34 34 35 33 29 29 30 31 30 29 29 29 27 27 28 29
28 27 27 28 29 29 30 31 32 32 32 31 30 28 27 26 25 25 25 25 25 25 26 26 27 28 29 30 30 31 31 30 30 30 30 31 31 31 32 35 37 37 34 31 33 33 32 33 33 34 35 35 35 38 39 38 39 39 36 34 35 34 31 28 29 30 31 31 30 30 29 28 29 30
29 28 27 28 28 28 29 29 29 29 29 28 28 26 25 24 24 24 24 24 24 24 24 24 25 25 26 27 27 28 28 28 27 26 26 27 28 28 29 32 34 36 35 33 32 33 32 32 32 33 35 37 37 39 40 39 39 40 37 34 35 36 33 29 28 29 31 31 30 30 29 28 29 31
29 28 27 26 26 26 27 27 26 26 26 25 25 25 25 25 25 25 25 24 24 24 24 24 25 24 24 24 24 25 26 26 26 25 24 25 27 27 28 31 33 35 38 38 35 34 33 33 33 33 35 38 39 40 41 41 41 40 37 34 34 36 35 32 31 31 30 30 31 31 29 28 29 31
28 27 26 26 26 26 26 26 25 25 24 23 23 24 26 27 27 27 27 26 25 25 25 25 25 25 24 24 24 24 25 25 25 25 24 25 27 27 28 31 32 33 36 37 37 37 35 34 34 34 35 37 38 39 41 44 46 44 39 35 34 36 35 32 31 31 30 30 31 31 31 30 29 30
27 25 24 25 25 25 25 25 24 24 24 23 23 23 25 27 28 28 27 27 26 26 25 25 25 25 26 27 27 26 26 26 26 25 25 26 27 27 28 30 31 31 32 33 35 36 37 36 36 35 36 37 38 39 40 44 48 48 43 39 36 36 35 32 31 31 31 30 31 32 32 31 30 30
24 24 23 24 24 24 23 23 23 23 23 23 24 24 24 26 27 28 27 26 25 25 24 24 25 26 28 29 28 26 27 27 27 27 28 27 27 26 26 28 30 30 31 32 33 34 34 34 34 34 36 38 39 41 43 43 44 46 44 41 38 36 34 32 32 33 33 33 34 34 33 33 32 31
22 22 22 22 22 22 21 21 22 22 23 23 24 24 25 26 26 27 27 26 24 24 25 26 27 27 28 29 28 28 28 28 29 30 30 29 29 28 27 27 28 29 30 31 32 32 31 32 32 32 36 38 38 41 45 45 42 41 39 39 38 37 36 36 35 34 33 33 34 34 34 34 34 31
21 20 20 21 20 20 20 20 21 21 22 23 24 24 25 26 27 28 28 27 26 27 27 27 27 28 29 30 30 30 29 29 30 31 31 31 30 29 27 27 27 28 29 30 31 32 31 31 30 30 33 36 37 41 45 45 40 36 36 37 37 36 36 36 35 34 32 30 31 33 33 34 35 33
19 19 19 19 19 19 19 19 20 21 22 23 23 24 25 26 27 29 29 29 29 28 28 27 28 29 31 31 31 32 31 31 31 31 31 31 30 28 28 28 28 29 29 29 31 31 31 31 30 29 30 33 35 38 42 42 38 34 32 32 33 33 33 34 34 33 30 28 29 31 31 33 35 34
18 18 18 18 18 18 19 19 20 21 21 22 23 24 25 26 27 28 29 29 29 28 27 27 28 30 31 32 32 32 32 32 32 31 31 30 30 29 29 29 29 30 30 31 31 31 31 31 30 29 29 30 33 35 38 38 37 34 30 27 26 27 28 30 31 31 29 29 30 31 31 32 34 33
18 17 17 17 17 18 18 19 20 21 21 22 23 24 25 26 27 28 29 29 28 28 28 28 28 29 31 33 34 33 33 32 31 31 31 30 30 30 30 30 30 30 31 31 31 31 32 31 29 28 29 31 34 35 34 33 32 32 32 30 27 23 24 28 29 28 28 29 29 28 29 33 35 32
18 17 17 17 17 18 18 19 20 21 21 22 23 24 25 26 26 27 28 28 28 29 29 28 29 29 31 33 34 34 34 33 32 31 31 31 31 31 30 30 30 30 30 30 30 31 33 33 31 31 31 32 32 31 29 27 26 26 27 27 23 19 19 23 25 26 27 30 29 26 25 28 30 29
19 18 17 17 18 18 18 19 20 21 22 23 24 24 25 26 27 27 28 28 29 29 29 29 29 29 31 33 35 34 33 33 32 32 31 31 32 32 31 30 30 30 30 30 31 32 34 33 31 30 29 28 26 25 25 24 20 16 15 16 16 14 14 16 18 19 22 26 28 26 24 24 25 25
20 19 18 18 18 18 19 20 20 21 22 23 24 25 26 27 27 28 28 29 29 30 30 29 29 30 31 33 34 34 34 33 32 32 31 30 31 31 31 31 30 29 29 30 30 31 31 30 28 27 24 22 21 22 23 22 17 12 12 12 11 11 12 12 14 16 17 20 23 23 23 23 23 22
20 20 20 19 19 19 20 20 21 22 23 23 24 25 26 27 28 28 28 29 29 30 30 30 30 29 31 32 34 34 34 32 31 31 30 30 30 30 30 30 29 29 28 28 28 29 28 26 24 22 21 20 20 20 21 20 15 12 12 11 10 10 11 11 14 16 17 17 19 19 19 20 20 19
21 21 21 20 20 20 20 21 22 23 23 24 25 25 26 27 27 28 28 29 29 30 30 30 30 29 29 31 33 34 33 32 31 30 30 29 29 28 28 28 28 28 27 26 27 28 28 24 22 21 20 19 18 18 19 18 14 12 13 12 11 10 10 11 12 14 14 16 17 17 16 16 16 16
Wind_Direction
316 315 314 314 313 312 310 310 310 309 310 311 312 314 317 318 315 315 313 310 310 310 310 311 311 311 311 309 308 306 304 304 303 302 302 301 301 300 299 297 296 296 296 295 294 294 294 293 293 292 287 278 269 264 261 259 257 255 252 248 244 241 239 238 239 243 245 245 249 256 259 256 250 247
311 311 311 311 311 310 310 310 310 310 310 311 312 313 314 316 315 314 310 306 307 308 308 307 306 306 306 305 305 303 302 302 302 302 300 299 299 298 297 296 294 293 292 291 290 290 290 290 290 289 289 287 280 270 263 260 258 256 255 252 247 243 241 240 239 240 242 245 247 252 256 258 256 255
310 310 310 310 310 310 310 311 311 311 311 312 313 313 313 314 314 314 311 304 304 306 307 305 303 302 302 302 302 302 302 302 302 301 300 299 298 297 296 295 294 291 289 288 287 287 287 287 287 286 285 286 285 280 271 263 259 257 256 254 251 247 242 241 240 239 240 244 244 246 252 256 257 259
312 312 312 311 311 311 311 311 312 312 312 312 313 313 313 313 312 313 311 305 303 305 306 305 304 304 302 300 300 300 300 301 302 302 301 300 299 298 296 295 293 292 290 287 286 285 284 284 283 283 283 282 281 281 278 271 263 258 256 254 253 251 245 241 240 238 238 241 241 242 248 252 256 258
316 315 315 314 314 313 313 313 313 313 313 313 312 312 312 311 310 310 308 305 304 304 304 305 304 305 304 302 301 300 298 298 300 301 301 300 300 298 296 294 292 291 290 288 286 284 282 282 281 280 279 279 278 277 277 276 271 263 257 255 253 253 249 243 240 238 237 238 239 242 245 248 252 255
319 318 318 318 317 317 316 316 316 315 314 313 312 311 311 309 308 308 306 303 303 302 302 303 302 303 304 303 302 301 299 297 297 298 298 299 300 299 298 296 294 291 289 288 286 285 282 280 279 278 277 276 275 274 274 274 274 269 262 256 253 252 251 247 242 239 237 238 239 241 244 246 249 252
321 321 320 320 320 319 318 317 317 316 315 314 313 311 310 309 307 306 304 302 301 300 300 300 300 301 301 301 301 301 301 299 296 296 295 296 298 299 299 299 298 296 293 289 286 284 282 280 278 276 276 275 273 272 272 271 271 270 267 261 255 252 251 249 245 242 239 238 239 240 243 245 247 249
322 321 321 321 320 319 318 318 318 317 316 315 313 312 310 309 307 305 303 301 300 299 298 299 299 299 298 299 300 301 304 302 299 297 296 295 295 296 299 300 301 300 299 296 291 287 283 280 278 276 274 273 272 271 270 269 268 268 268 265 260 255 251 249 247 245 242 240 239 239 241 243 245 246
322 321 321 320 320 320 319 319 318 317 316 314 313 312 310 309 307 305 303 301 299 296 295 296 298 297 297 299 301 302 305 306 303 300 300 298 297 296 297 299 301 301 301 300 297 292 286 281 278 276 273 271 270 270 268 266 265 264 265 264 263 259 255 250 247 245 244 243 241 239 239 240 242 244
320 320 320 319 320 320 319 319 319 317 316 315 313 312 310 308 306 304 303 301 298 295 293 294 296 297 298 300 302 303 305 305 304 304 305 305 303 300 297 296 297 298 299 298 297 294 289 286 284 279 274 270 267 267 266 265 264 263 262 262 261 261 259 255 250 246 244 244 243 242 240 240 242 243
319 319 319 319 319 320 320 320 319 318 316 314 313 311 309 307 305 303 300 297 295 293 292 293 294 296 298 299 301 303 305 305 304 306 310 307 302 299 298 295 293 294 296 298 298 297 294 293 291 285 278 271 266 264 264 263 262 261 260 260 260 259 258 258 255 250 246 244 244 244 242 241 241 241
319 319 319 320 320 321 321 321 319 318 316 314 312 309 307 305 302 300 298 295 293 292 291 292 292 294 296 297 300 303 306 306 304 305 306 302 300 301 301 297 293 294 298 300 301 301 299 296 294 290 284 277 270 265 262 261 261 260 258 257 257 257 257 257 257 255 250 246 244 244 244 242 241 240
319 319 319 320 321 321 321 321 319 318 317 313 310 308 306 303 301 298 296 295 295 295 295 295 295 295 296 298 302 305 305 304 304 305 304 300 300 302 297 291 288 291 298 302 303 302 300 298 294 291 288 283 278 273 266 262 260 260 258 256 255 256 257 256 256 256 254 250 246 244 244 243 242 241
319 320 320 321 321 321 321 321 319 318 316 312 308 306 303 301 298 295 294 294 295 296 295 294 295 295 294 296 300 300 300 300 299 301 301 298 298 301 298 295 295 297 299 300 297 289 285 287 287 285 285 283 282 282 277 269 263 261 259 257 254 254 254 255 255 254 253 252 249 246 244 243 243 242
320 321 321 321 321 322 322 321 320 319 315 311 308 305 302 297 293 290 290 292 293 294 292 292 293 292 292 296 298 297 300 300 297 298 298 296 298 300 300 300 303 309 310 305 297 287 283 287 287 284 283 281 277 278 279 275 269 264 260 257 254 252 252 252 253 253 252 252 251 248 246 244 243 242
321 320 321 321 322 322 323 323 322 320 316 313 311 307 303 297 292 289 291 295 297 296 294 293 292 289 292 297 298 297 300 299 296 297 295 294 295 297 297 297 300 307 311 305 299 292 289 293 294 290 288 284 277 274 276 278 277 272 266 259 255 252 251 250 250 251 251 251 250 249 247 245 243 242
320 320 321 322 322 324 325 324 324 321 317 315 312 308 305 303 301 303 305 307 305 300 294 290 289 289 291 290 289 293 299 298 296 296 295 293 292 292 293 294 296 301 303 299 297 295 294 296 295 293 293 290 283 278 278 281 283 280 273 265 259 255 253 251 250 250 250 250 250 250 248 246 244 242
320 321 322 322 323 325 325 325 323 320 317 314 312 310 310 312 315 315 314 314 311 305 298 292 291 294 292 287 287 296 301 299 297 298 299 298 297 296 297 296 295 296 296 293 292 292 295 298 293 290 292 293 290 285 282 283 283 281 279 273 267 263 258 254 253 252 251 251 250 250 249 247 246 243
320 321 322 323 324 324 325 324 322 319 319 316 313 313 314 316 316 313 311 314 313 309 305 300 297 298 297 296 298 302 303 300 299 301 300 299 299 298 297 295 293 292 289 287 284 285 291 297 293 289 291 291 290 287 282 279 279 279 280 279 277 273 265 258 255 253 252 251 250 250 250 249 247 245
319 320 321 322 323 324 324 322 321 324 324 317 312 312 312 312 310 309 310 313 312 309 306 303 300 298 298 299 300 300 299 297 296 297 295 294 294 294 293 291 290 288 285 283 279 281 288 294 292 291 293 293 294 294 288 282 278 276 276 279 283 282 274 264 259 255 251 250 249 248 249 250 249 247
318 319 320 322 322 323 323 323 325 327 320 309 306 306 305 305 306 308 311 311 309 307 304 300 298 295 293 293 293 292 290 288 288 289 289 289 290 289 288 287 287 285 283 282 278 277 283 290 291 292 294 295 296 299 297 290 283 278 276 276 278 279 277 272 267 260 253 249 249 248 247 248 249 248
317 317 319 321 322 323 325 327 328 324 311 304 305 305 306 305 304 305 307 307 305 305 303 301 299 297 294 292 290 287 283 281 283 285 287 288 288 284 282 282 285 285 281 280 280 277 281 288 290 292 296 296 295 298 299 296 288 283 280 278 276 275 276 278 275 268 258 252 249 249 247 247 248 248
315 316 318 321 324 325 328 328 324 316 307 304 306 307 306 303 302 304 306 306 305 305 304 303 303 301 299 297 293 288 284 283 286 289 289 286 280 278 278 279 281 282 280 279 280 279 282 288 288 291 298 299 298 300 301 297 293 289 283 277 275 276 277 278 279 276 268 258 252 250 248 246 246 247
315 317 320 323 324 326 329 325 316 311 307 305 304 304 303 301 302 305 303 301 302 303 302 301 301 299 297 296 292 287 286 289 291 293 291 284 274 272 274 275 275 276 276 278 278 279 282 286 286 287 290 291 293 295 295 294 295 295 290 280 275 276 275 276 279 279 273 264 257 252 249 246 245 245
316 318 320 322 323 326 326 320 311 308 305 302 299 298 296 296 298 299 299 298 299 297 295 294 294 293 291 290 287 284 286 290 291 290 287 282 278 275 272 272 273 273 276 278 277 277 280 282 283 286 285 283 284 289 292 291 290 290 292 288 283 278 274 272 273 274 273 271 265 258 252 248 244 242
315 317 318 319 321 322 317 311 307 305 304 302 301 300 298 295 295 296 296 295 292 291 291 292 293 293 291 290 289 288 288 290 290 290 288 287 287 285 280 276 274 274 278 282 279 275 277 278 279 282 283 282 283 285 288 288 287 287 290 291 289 283 274 270 269 268 270 272 270 264 260 256 249 244
313 313 313 315 316 315 311 309 310 310 310 310 310 310 307 302 298 296 293 291 291 293 294 295 295 296 296 296 295 293 291 291 291 292 291 290 291 292 289 286 282 280 282 283 279 275 276 276 276 276 277 279 281 282 281 283 286 289 289 289 289 283 274 269 267 266 265 267 267 265 263 264 261 253
308 309 311 312 313 313 313 315 315 315 316 317 315 315 312 307 303 301 300 299 300 299 299 300 301 301 302 303 302 300 298 296 294 294 293 293 295 295 294 292 290 287 287 286 282 279 276 273 273 274 273 272 274 276 277 279 282 285 285 284 283 280 275 270 266 263 260 260 263 264 262 262 263 260
306 310 313 314 315 317 319 320 321 321 321 321 319 317 314 312 310 309 309 310 309 308 308 307 306 306 305 304 302 299 299 298 297 297 297 298 300 299 298 297 294 293 294 294 293 290 282 272 270 270 269 268 267 269 273 275 277 279 280 280 279 278 276 270 264 261 258 257 259 262 260 258 259 262
311 316 319 319 319 322 325 325 325 324 323 322 321 320 320 319 319 317 316 316 315 313 312 309 308 307 305 304 302 301 301 300 300 300 302 302 302 302 302 300 297 295 296 296 299 297 288 277 273 269 267 265 264 266 270 272 273 274 274 276 278 277 274 267 262 259 256 255 256 259 259 257 257 259
317 321 322 321 321 324 325 324 323 322 322 323 325 327 329 330 330 328 325 323 321 319 318 315 314 313 312 311 310 309 306 302 299 300 303 301 298 297 296 294 292 294 296 295 295 295 291 286 282 275 271 269 269 272 275 273 270 271 273 273 272 271 268 265 263 260 255 253 255 257 257 256 256 257
318 321 320 319 321 324 323 323 323 323 325 328 331 334 338 339 340 338 334 331 328 326 326 324 321 321 320 318 317 315 312 306 303 306 305 298 293 292 290 286 285 290 296 298 296 295 293 292 290 287 282 279 277 279 279 273 269 268 269 270 270 268 264 261 260 259 256 252 253 256 255 253 254 256
315 318 317 319 323 325 324 325 327 328 329 331 335 341 344 345 345 343 339 336 334 332 331 330 329 330 329 326 326 324 320 317 316 314 305 297 296 295 291 286 283 285 292 297 298 298 297 296 295 295 293 289 285 281 275 271 271 271 267 265 267 266 263 260 257 258 257 252 251 254 254 252 252 255
312 314 318 321 323 324 325 327 331 333 334 335 339 345 348 348 347 345 341 338 337 335 334 333 335 337 337 335 334 329 323 320 319 314 305 301 300 296 291 289 286 285 286 288 292 299 302 302 301 299 298 297 295 291 280 272 271 273 269 263 263 262 261 259 256 255 256 252 248 251 253 251 251 254
310 313 318 321 321 322 326 330 333 335 336 339 343 347 351 351 349 345 342 340 336 334 336 339 342 343 340 338 334 328 322 319 317 315 314 312 307 300 294 290 288 287 286 283 286 292 298 300 300 297 296 295 293 293 293 285 276 272 267 260 257 257 256 256 255 256 256 252 246 247 250 251 250 251
309 313 316 317 317 321 326 330 333 335 337 339 343 346 349 352 350 346 344 341 338 340 345 348 346 343 340 338 335 331 327 324 321 321 322 321 317 312 304 295 291 290 288 285 286 288 289 291 292 289 289 291 285 284 293 295 287 276 268 259 255 254 253 254 257 259 257 250 245 244 247 248 248 248
307 310 311 312 315 320 324 328 331 333 336 339 341 344 347 349 349 347 345 344 346 351 352 348 343 342 342 342 340 336 333 330 327 325 324 323 322 317 308 300 297 296 293 289 289 289 287 288 288 283 284 288 283 280 289 297 291 279 271 264 260 259 257 255 256 257 254 249 246 246 246 247 249 248
303 305 305 308 313 317 321 325 328 331 334 336 338 341 344 345 347 347 346 348 352 354 352 347 345 345 345 344 341 338 336 333 330 328 325 324 321 315 309 305 302 300 299 296 293 292 288 285 285 283 282 285 284 284 291 295 289 280 274 269 263 261 258 254 251 252 252 250 249 249 249 250 250 248
297 298 300 304 309 313 318 322 324 328 332 334 336 339 341 343 346 346 346 350 353 352 349 347 346 345 344 344 342 339 335 332 331 330 328 327 323 318 314 310 305 301 300 298 296 294 291 286 285 284 284 285 287 290 295 295 288 280 276 274 270 264 256 249 248 249 248 249 251 251 251 251 248 244
290 292 296 301 305 309 314 317 320 325 329 331 334 337 338 341 344 344 346 349 351 350 348 347 345 344 343 343 343 340 336 334 332 331 330 329 326 322 317 312 308 306 304 300 297 296 293 290 288 287 288 288 290 296 303 302 292 282 277 276 277 270 254 247 249 250 247 247 249 247 245 243 239 235
287 289 294 299 302 306 310 313 317 322 326 328 331 335 337 339 341 343 345 347 348 348 349 348 347 346 344 343 343 341 337 336 335 333 332 330 327 325 321 316 314 313 307 300 297 297 296 296 296 295 294 294 296 302 305 299 288 281 276 273 271 263 250 248 253 254 249 245 243 239 234 232 230 230
284 288 293 296 299 303 307 311 315 319 322 325 328 331 334 336 339 341 344 345 346 347 347 347 348 348 345 344 344 342 339 337 336 335 334 332 329 328 326 322 320 318 312 305 303 304 305 306 306 303 299 298 304 307 300 287 276 272 273 269 261 253 247 248 254 255 249 243 239 235 231 228 226 229
282 286 289 292 296 301 305 308 311 314 317 320 324 327 329 332 335 338 341 342 343 344 344 345 346 347 346 345 345 342 340 339 338 336 335 334 332 330 329 326 324 322 318 315 314 315 314 312 309 306 302 303 309 309 298 287 277 271 274 274 264 257 256 251 249 251 249 243 240 239 237 235 233 234
280 283 286 290 294 298 302 305 307 309 312 315 318 322 325 328 331 334 337 338 339 340 341 342 343 344 345 346 345 342 340 339 338 337 336 337 336 333 331 330 329 327 325 323 322 323 322 317 313 313 313 311 312 309 299 290 280 268 269 273 268 266 267 257 247 245 244 241 241 240 237 237 239 242
279 282 284 288 291 294 299 302 303 305 308 311 314 318 321 323 326 329 331 334 335 336 337 339 339 340 343 345 344 342 340 339 338 338 338 338 339 337 336 335 334 332 332 330 328 328 327 324 323 326 324 317 314 310 300 292 282 269 266 265 262 264 268 260 251 250 248 246 246 243 237 236 242 249